Time,TemperatureF,DewpointF,PressureIn,WindDirection,WindDirectionDegrees,WindSpeedMPH,WindSpeedGustMPH,Humidity,HourlyPrecipIn,Conditions,Clouds,dailyrainin,SoftwareType,DateUTC
2013-09-21 00:00:00,56.0,-99.9,-100.00,WNW,294,2.0,10.0,-999,0.00,,,0.00,,2013-09-21 05:00:00,
2013-09-21 00:44:00,56.0,-99.9,-100.00,WNW,294,2.0,10.0,-999,0.00,,,0.00,,2013-09-21 05:44:00,
2013-09-21 00:53:00,56.0,-99.9,-100.00,WNW,294,2.0,10.0,-999,0.00,,,0.00,,2013-09-21 05:53:00,
2013-09-21 01:00:00,56.0,-99.9,-100.00,WNW,294,2.0,13.0,-999,0.00,,,0.00,,2013-09-21 06:00:00,
2013-09-21 01:42:00,56.0,-99.9,-100.00,WNW,294,2.0,13.0,-999,0.00,,,0.00,,2013-09-21 06:42:00,
2013-09-21 01:53:00,56.0,-99.9,-100.00,WNW,294,2.0,13.0,-999,0.00,,,0.00,,2013-09-21 06:53:00,
2013-09-21 02:00:00,56.0,-99.9,-100.00,WNW,292,2.0,10.0,-999,0.00,,,0.00,,2013-09-21 07:00:00,
2013-09-21 02:42:00,56.0,-99.9,-100.00,WNW,292,2.0,10.0,-999,0.00,,,0.00,,2013-09-21 07:42:00,
2013-09-21 02:53:00,56.0,-99.9,-100.00,WNW,292,2.0,10.0,-999,0.00,,,0.00,,2013-09-21 07:53:00,
2013-09-21 03:00:00,56.0,-99.9,-100.00,West,280,2.0,8.0,-999,0.00,,,0.00,,2013-09-21 08:00:00,
2013-09-21 03:42:00,56.0,-99.9,-100.00,West,280,2.0,8.0,-999,0.00,,,0.00,,2013-09-21 08:42:00,
2013-09-21 03:52:00,56.0,-99.9,-100.00,West,280,2.0,8.0,-999,0.00,,,0.00,,2013-09-21 08:52:00,
2013-09-21 04:00:00,55.0,-99.9,-100.00,West,278,3.0,10.0,-999,0.00,,,0.00,,2013-09-21 09:00:00,
2013-09-21 04:43:00,55.0,-99.9,-100.00,West,278,3.0,10.0,-999,0.00,,,0.00,,2013-09-21 09:43:00,
2013-09-21 04:54:00,55.0,-99.9,-100.00,West,278,3.0,10.0,-999,0.00,,,0.00,,2013-09-21 09:54:00,
2013-09-21 05:00:00,54.0,-99.9,-100.00,NW,310,3.0,11.0,-999,0.00,,,0.00,,2013-09-21 10:00:00,
2013-09-21 05:42:00,54.0,-99.9,-100.00,NW,310,3.0,11.0,-999,0.00,,,0.00,,2013-09-21 10:42:00,
2013-09-21 05:53:00,54.0,-99.9,-100.00,NW,310,3.0,11.0,-999,0.00,,,0.00,,2013-09-21 10:53:00,
2013-09-21 09:00:00,56.0,-99.9,-100.00,NW,307,2.0,6.0,-999,0.00,,,0.00,,2013-09-21 14:00:00,
2013-09-21 09:52:00,56.0,-99.9,-100.00,NW,307,2.0,6.0,-999,0.00,,,0.00,,2013-09-21 14:52:00,
2013-09-21 11:00:00,62.0,-99.9,-100.00,NNW,329,2.0,9.0,-999,0.00,,,0.00,,2013-09-21 16:00:00,
2013-09-21 11:43:00,62.0,-99.9,-100.00,NNW,329,2.0,9.0,-999,0.00,,,0.00,,2013-09-21 16:43:00,
2013-09-21 11:54:00,62.0,-99.9,-100.00,NNW,329,2.0,9.0,-999,0.00,,,0.00,,2013-09-21 16:54:00,
2013-09-21 12:00:00,64.0,-99.9,-100.00,NNW,332,4.0,12.0,-999,0.00,,,0.00,,2013-09-21 17:00:00,
2013-09-21 12:43:00,64.0,-99.9,-100.00,NNW,332,4.0,12.0,-999,0.00,,,0.00,,2013-09-21 17:43:00,
2013-09-21 12:53:00,64.0,-99.9,-100.00,NNW,332,4.0,12.0,-999,0.00,,,0.00,,2013-09-21 17:53:00,
2013-09-21 13:00:00,67.0,-99.9,-100.00,NW,320,2.0,7.0,-999,0.00,,,0.00,,2013-09-21 18:00:00,
2013-09-21 13:52:00,67.0,-99.9,-100.00,NW,320,2.0,7.0,-999,0.00,,,0.00,,2013-09-21 18:52:00,
2013-09-21 14:00:00,67.0,-99.9,-100.00,NNW,339,3.0,7.0,-999,0.00,,,0.00,,2013-09-21 19:00:00,
2013-09-21 14:42:00,67.0,-99.9,-100.00,NNW,339,3.0,7.0,-999,0.00,,,0.00,,2013-09-21 19:42:00,
2013-09-21 14:52:00,67.0,-99.9,-100.00,NNW,339,3.0,7.0,-999,0.00,,,0.00,,2013-09-21 19:52:00,
2013-09-21 15:00:00,69.0,-99.9,-100.00,NW,320,2.0,7.0,-999,0.00,,,0.00,,2013-09-21 20:00:00,
2013-09-21 15:43:00,69.0,-99.9,-100.00,NW,320,2.0,7.0,-999,0.00,,,0.00,,2013-09-21 20:43:00,
2013-09-21 15:53:00,69.0,-99.9,-100.00,NW,320,2.0,7.0,-999,0.00,,,0.00,,2013-09-21 20:53:00,
2013-09-21 16:00:00,71.0,-99.9,-100.00,WNW,299,2.0,7.0,-999,0.00,,,0.00,,2013-09-21 21:00:00,
2013-09-21 16:45:00,71.0,-99.9,-100.00,WNW,299,2.0,7.0,-999,0.00,,,0.00,,2013-09-21 21:45:00,
2013-09-21 16:54:00,71.0,-99.9,-100.00,WNW,299,2.0,7.0,-999,0.00,,,0.00,,2013-09-21 21:54:00,
2013-09-21 17:00:00,71.0,-99.9,-100.00,NNW,343,2.0,5.0,-999,0.00,,,0.00,,2013-09-21 22:00:00,
2013-09-21 17:43:00,71.0,-99.9,-100.00,NNW,343,2.0,5.0,-999,0.00,,,0.00,,2013-09-21 22:43:00,
2013-09-21 17:53:00,71.0,-99.9,-100.00,NNW,343,2.0,5.0,-999,0.00,,,0.00,,2013-09-21 22:53:00,
2013-09-21 18:00:00,69.0,-99.9,-100.00,NNW,348,1.0,3.0,-999,0.00,,,0.00,,2013-09-21 23:00:00,
2013-09-21 18:42:00,69.0,-99.9,-100.00,NNW,348,1.0,3.0,-999,0.00,,,0.00,,2013-09-21 23:42:00,
2013-09-21 18:53:00,69.0,-99.9,-100.00,NNW,348,1.0,3.0,-999,0.00,,,0.00,,2013-09-21 23:53:00,
2013-09-21 19:00:00,64.0,-99.9,-100.00,SSW,199,1.0,2.0,-999,0.00,,,0.00,,2013-09-22 00:00:00,
2013-09-21 19:43:00,64.0,-99.9,-100.00,SSW,199,1.0,2.0,-999,0.00,,,0.00,,2013-09-22 00:43:00,
2013-09-21 19:52:00,64.0,-99.9,-100.00,SSW,199,1.0,2.0,-999,0.00,,,0.00,,2013-09-22 00:52:00,
2013-09-21 20:00:00,61.0,-99.9,-100.00,SSE,164,1.0,2.0,-999,0.00,,,0.00,,2013-09-22 01:00:00,
2013-09-21 20:42:00,61.0,-99.9,-100.00,SSE,164,1.0,2.0,-999,0.00,,,0.00,,2013-09-22 01:42:00,
2013-09-21 20:52:00,61.0,-99.9,-100.00,SSE,164,1.0,2.0,-999,0.00,,,0.00,,2013-09-22 01:52:00,
2013-09-21 21:00:00,59.0,-99.9,-100.00,SSW,194,1.0,2.0,-999,0.00,,,0.00,,2013-09-22 02:00:00,
2013-09-21 21:42:00,59.0,-99.9,-100.00,SSW,194,1.0,2.0,-999,0.00,,,0.00,,2013-09-22 02:42:00,
2013-09-21 21:52:00,59.0,-99.9,-100.00,SSW,194,1.0,2.0,-999,0.00,,,0.00,,2013-09-22 02:52:00,
2013-09-21 23:00:00,55.0,-99.9,-100.00,SSE,163,2.0,4.0,-999,0.00,,,0.00,,2013-09-22 04:00:00,
2013-09-21 23:54:00,55.0,-99.9,-100.00,SSE,163,2.0,4.0,-999,0.00,,,0.00,,2013-09-22 04:54:00,